Location: Silent Lake
(44.9206°N, 78.0708°W)
Time: 23:39:21
(UTC-04:00)

Cosmos 1869 Rocket - Pass Details

Date: 19 April 2018
Orbit: 604 x 634 km, 82.5° (Epoch: 19 September)

Event Time Altitude Azimuth Distance (km) Brightness Sun altitude
Rises 22:56:09 0° 345° (NNW) 2,903 8.1 -25.9°
Reaches altitude 10° 22:58:28 10° 338° (NNW) 1,988 7.1 -26.1°
Maximum altitude 23:02:38 43° 268° (W) 864 4.4 -26.5°
Enters shadow 23:02:44 43° 263° (W) 865 4.4 -26.6°
